| time (UTC) | temp C | wind direction | speed KPH | gust KPH | rain 1hr cm | rain 24hr cm | rain mn cm | humidity % | barometer mb |
| 20260504011526 | 15 | 251 | 0.0 | 0.0 | 0.00 | 0.00 | 0.00 | 58 | 1005.5 |
| 20260504010010 | 16 | 251 | 0.0 | 0.0 | 0.00 | 0.00 | 0.00 | 54 | 1005.3 |
| 20260504004528 | 17 | 251 | 0.0 | 3.2 | 0.00 | 0.00 | 0.00 | 51 | 1005.2 |
| 20260504003015 | 17 | 259 | 1.6 | 8.0 | 0.00 | 0.00 | 0.00 | 47 | 1005.2 |
| 20260504001534 | 18 | 243 | 4.8 | 12.9 | 0.00 | 0.00 | 0.00 | 45 | 1005.0 |
| 20260504000027 | 18 | 254 | 4.8 | 9.7 | 0.00 | 0.00 | 0.00 | 45 | 1005.1 |
| 20260503234508 | 19 | 295 | 6.4 | 16.1 | 0.00 | 0.00 | 0.00 | 43 | 1005.0 |
| 20260503233029 | 19 | 264 | 9.7 | 16.1 | 0.00 | 0.00 | 0.00 | 43 | 1005.1 |
| 20260503231531 | 19 | 266 | 11.3 | 20.9 | 0.00 | 0.00 | 0.00 | 43 | 1005.3 |
| 20260503230036 | 19 | 269 | 8.0 | 16.1 | 0.00 | 0.00 | 0.00 | 42 | 1005.4 |
| 20260503224526 | 19 | 225 | 6.4 | 17.7 | 0.00 | 0.00 | 0.00 | 42 | 1005.4 |
| 20260503223028 | 19 | 247 | 8.0 | 19.3 | 0.00 | 0.00 | 0.00 | 44 | 1005.5 |
| 20260503221515 | 18 | 255 | 8.0 | 19.3 | 0.00 | 0.00 | 0.00 | 45 | 1005.5 |
| 20260503220030 | 18 | 282 | 6.4 | 20.9 | 0.00 | 0.00 | 0.00 | 44 | 1005.7 |
| 20260503214538 | 18 | 245 | 8.0 | 20.9 | 0.00 | 0.00 | 0.00 | 46 | 1005.7 |
| 20260503213028 | 18 | 262 | 12.9 | 22.5 | 0.00 | 0.00 | 0.00 | 44 | 1005.9 |
| 20260503211511 | 18 | 174 | 8.0 | 20.9 | 0.00 | 0.00 | 0.00 | 45 | 1006.1 |
| 20260503210017 | 18 | 265 | 14.5 | 29.0 | 0.00 | 0.00 | 0.00 | 45 | 1006.1 |
| 20260503204520 | 18 | 289 | 9.7 | 25.7 | 0.00 | 0.00 | 0.00 | 44 | 1006.4 |
| 20260503203035 | 17 | 236 | 14.5 | 29.0 | 0.00 | 0.00 | 0.00 | 46 | 1006.5 |
| 20260503201528 | 17 | 241 | 3.2 | 24.1 | 0.00 | 0.00 | 0.00 | 50 | 1006.8 |
| 20260503200016 | 16 | 266 | 12.9 | 29.0 | 0.00 | 0.00 | 0.00 | 50 | 1007.1 |
| 20260503194529 | 16 | 257 | 12.9 | 27.4 | 0.00 | 0.00 | 0.00 | 49 | 1007.4 |
| 20260503193004 | 16 | 248 | 12.9 | 32.2 | 0.00 | 0.00 | 0.00 | 49 | 1007.6 |
| 20260503191549 | 17 | 284 | 17.7 | 27.4 | 0.00 | 0.00 | 0.00 | 46 | 1007.6 |
| 20260503190023 | 17 | 281 | 14.5 | 33.8 | 0.00 | 0.00 | 0.00 | 44 | 1007.6 |
| 20260503184515 | 16 | 300 | 6.4 | 33.8 | 0.00 | 0.00 | 0.00 | 49 | 1007.7 |
| 20260503183028 | 17 | 249 | 12.9 | 24.1 | 0.00 | 0.00 | 0.00 | 47 | 1008.0 |
| 20260503181507 | 16 | 248 | 6.4 | 19.3 | 0.00 | 0.00 | 0.00 | 48 | 1008.3 |
| 20260503180011 | 16 | 206 | 8.0 | 22.5 | 0.00 | 0.00 | 0.00 | 50 | 1008.6 |
| 20260503174513 | 15 | 255 | 12.9 | 25.7 | 0.00 | 0.00 | 0.00 | 51 | 1008.8 |
| 20260503173018 | 15 | 271 | 14.5 | 24.1 | 0.00 | 0.00 | 0.00 | 55 | 1009.1 |
| 20260503171523 | 14 | 236 | 11.3 | 25.7 | 0.00 | 0.00 | 0.00 | 56 | 1009.3 |
| 20260503081527 | 8 | 266 | 6.4 | 12.9 | 0.00 | 0.00 | 0.00 | 54 | 1012.9 |
| 20260503071513 | 8 | 251 | 4.8 | 12.9 | 0.00 | 0.00 | 0.00 | 52 | 1013.3 |
| 20260503054520 | 8 | 271 | 1.6 | 9.7 | 0.00 | 0.00 | 0.00 | 53 | 1014.0 |
| 20260503053029 | 7 | 269 | 1.6 | 8.0 | 0.00 | 0.00 | 0.00 | 53 | 1014.1 |
| 20260503051510 | 7 | 273 | 1.6 | 4.8 | 0.00 | 0.00 | 0.00 | 54 | 1014.2 |
| 20260503050012 | 8 | 293 | 0.0 | 6.4 | 0.00 | 0.00 | 0.00 | 54 | 1014.2 |
| 20260503044515 | 8 | 280 | 0.0 | 6.4 | 0.00 | 0.00 | 0.00 | 53 | 1014.3 |
| 20260503043024 | 8 | 250 | 0.0 | 8.0 | 0.00 | 0.00 | 0.00 | 53 | 1014.4 |
| 20260503041524 | 7 | 244 | 1.6 | 6.4 | 0.00 | 0.00 | 0.00 | 54 | 1014.5 |
| 20260503040010 | 7 | 254 | 0.0 | 3.2 | 0.00 | 0.00 | 0.00 | 57 | 1014.7 |
| 20260503034515 | 7 | 263 | 0.0 | 1.6 | 0.00 | 0.00 | 0.00 | 57 | 1014.7 |
| 20260503033020 | 7 | 269 | 0.0 | 1.6 | 0.00 | 0.00 | 0.00 | 59 | 1014.8 |
| 20260503031522 | 7 | 273 | 0.0 | 1.6 | 0.00 | 0.00 | 0.00 | 58 | 1014.9 |
| 20260503030029 | 6 | 262 | 0.0 | 1.6 | 0.00 | 0.00 | 0.00 | 59 | 1015.1 |
| 20260503024514 | 6 | 226 | 0.0 | 0.0 | 0.00 | 0.00 | 0.00 | 63 | 1015.2 |
| 20260503023013 | 6 | 226 | 0.0 | 0.0 | 0.00 | 0.00 | 0.00 | 62 | 1015.4 |
| 20260503021522 | 6 | 226 | 0.0 | 0.0 | 0.00 | 0.00 | 0.00 | 59 | 1015.3 |
| 20260503020028 | 7 | 226 | 0.0 | 0.0 | 0.00 | 0.00 | 0.00 | 59 | 1015.2 |
| 20260503014528 | 7 | 226 | 0.0 | 0.0 | 0.00 | 0.00 | 0.00 | 58 | 1015.0 |
| 20260503013037 | 7 | 226 | 0.0 | 0.0 | 0.00 | 0.00 | 0.00 | 55 | 1014.9 |